Home   Weather   Palermo   Past weeks

Flag for Italy Past Weather in Palermo, Italy — Yesterday and Last 2 Weeks

Now
48 °F

Broken clouds.


Feels Like: 42 °F
Forecast: 43 / 54 °F
Wind: 16 mph from Southwest

Location: Palermo / Punta Raisi

Current Time: Jan 18, 2017 at 1:09:07 pm

Latest Report: Jan 18, 2017 at 12:20 pm


Visibility: N/A

Pressure: 29.71 "Hg

Humidity: 76%

Dew Point: 41 °F

Location of PalermoLocation

Past Weather in Palermo — Graph

°F

Palermo Temperature Yesterday

Maximum temperature yesterday: 48 °F (at 8:50 am)
Minimum temperature yesterday: 41 °F (at 7:20 am)
Average temperature yesterday: 44 °F

High & Low Weather Summary for the Past Weeks

 TemperatureHumidityPressure
High61 °F (Jan 3, 1:50 pm)93% (Jan 6, 8:20 am)30.30 "Hg (Jan 6, 8:20 am)
Low41 °F (Jan 12, 1:20 am)38% (Jan 14, 12:50 pm)29.50 "Hg (Jan 17, 5:20 am)
Average50 °F66%29.94 "Hg
* Reported Jan 3 11:20 am — Jan 18 11:50 am, Palermo, Weather by CustomWeather, © 2017

Note: Actual official high and low records may vary slightly from our data, if they occured in-between our weather recording intervals... More about our weather records

Advertising

Palermo Weather History for the Previous 24 Hours

Scroll right to see more
 ConditionsComfort  
Time TempWeatherWind HumidityBarometerVisibility
11:50 am
Wed, Jan 18
48 °FSprinkles. Broken clouds.16 mph82%29.71 "HgN/A
11:20 am46 °FScattered clouds.15 mph82%29.71 "HgN/A
10:50 am46 °FScattered clouds.16 mph82%29.71 "HgN/A
10:20 am46 °FScattered clouds.16 mph82%29.68 "HgN/A
9:50 am46 °FBroken clouds.15 mph87%29.68 "HgN/A
9:20 am45 °FLight rain. Broken clouds.6 mph93%29.65 "HgN/A
8:50 am43 °FLight rain. Broken clouds.5 mph87%29.65 "HgN/A
8:20 am43 °FLight rain. Broken clouds.6 mph81%29.62 "HgN/A
7:50 am41 °FLight rain. Broken clouds.12 mph87%29.59 "HgN/A
7:20 am43 °FRain showers. Partly cloudy.8 mph87%29.62 "Hg4 mi
6:50 am43 °FRain. Partly cloudy.10 mph87%29.62 "Hg4 mi
6:20 am43 °FRain. Partly cloudy.5 mph81%29.62 "Hg4 mi
5:50 am43 °FRain. Passing clouds.2 mph87%29.62 "Hg2 mi
5:20 am43 °FRain. Passing clouds.7 mph87%29.62 "Hg4 mi
4:20 am43 °FLight rain. Passing clouds.3 mph81%29.65 "Hg6 mi
3:50 am45 °FLight rain. Passing clouds.3 mph76%29.65 "Hg6 mi
3:20 am43 °FLight rain. Passing clouds.3 mph81%29.65 "HgN/A
2:20 am45 °FPassing clouds.14 mph76%29.65 "HgN/A
1:50 am45 °FPassing clouds.14 mph76%29.65 "HgN/A
1:20 am45 °FPassing clouds.3 mph71%29.65 "HgN/A
12:50 am45 °FPassing clouds.7 mph71%29.65 "HgN/A
12:20 am45 °FPassing clouds.17 mph71%29.65 "HgN/A
11:50 pm
Tue, Jan 17
45 °FPassing clouds.12 mph71%29.65 "HgN/A
11:20 pm45 °FPassing clouds.9 mph71%29.65 "HgN/A
10:50 pm45 °FPassing clouds.12 mph66%29.65 "HgN/A
10:20 pm43 °FPassing clouds.13 mph71%29.65 "HgN/A
9:50 pm45 °FPassing clouds.15 mph66%29.65 "HgN/A
9:20 pm45 °FPassing clouds.16 mph66%29.65 "HgN/A
8:50 pm45 °FPassing clouds.17 mph71%29.65 "HgN/A
8:20 pm45 °FPassing clouds.14 mph66%29.65 "HgN/A
7:50 pm43 °FPassing clouds.15 mph76%29.65 "HgN/A
7:20 pm43 °FPassing clouds.15 mph76%29.65 "HgN/A
6:50 pm43 °FPassing clouds.9 mph76%29.65 "HgN/A
6:20 pm43 °FLight rain. Passing clouds.12 mph81%29.65 "HgN/A
5:50 pm43 °FLight rain. Passing clouds.14 mph81%29.62 "HgN/A
5:20 pm43 °FSprinkles. Passing clouds.15 mph81%29.62 "HgN/A
4:50 pm45 °FScattered showers. Scattered clouds.17 mph76%29.62 "HgN/A
4:20 pm46 °FScattered clouds.15 mph66%29.59 "HgN/A
3:50 pm46 °FScattered clouds.16 mph66%29.59 "HgN/A
3:20 pm46 °FScattered clouds.16 mph66%29.59 "HgN/A
2:50 pm45 °FScattered clouds.9 mph76%29.59 "HgN/A
2:20 pm43 °FPartly sunny.13 mph81%29.59 "HgN/A
1:50 pm43 °FLight rain. Partly sunny.18 mph81%29.62 "HgN/A
1:20 pm45 °FScattered clouds.16 mph76%29.59 "HgN/A
Weather by CustomWeather, © 2017

See weather overviewHow to use our weather pages